Погода в Роттердаме

Нидерланды     51°54′47″N   4°28′03″E
темп.,
°C
ветер,
м/с
пор.,
м/с
влажн.,
%
обл.,
%
осадки,
мм/ч
давл.,
гПа
погр.,
м
10 августа, ср
ср1023:00+19св4116410 0.0 1028362
02:00+17всв397336 0.0 1028245
05:00+15всв38805 0.0 1027175
08:00+17всв367015 0.0 1027188
11:00+24всв45435 0.0 1027667
14:00+29всв34299 0.0 10251708
17:00+30ссв44275 0.0 10232023
20:00+28св36340 0.0 1022536
11 августа, чт
чт1123:00+21ссв48580 0.0 1023183
02:00+19всв310630 0.0 1023216
05:00+17в35660 0.0 102298
08:00+19в25540 0.0 1023125
11:00+28всв35300 0.0 1022642
14:00+32всв44220 0.0 10212036
17:00+33св34190 0.0 10192340
20:00+30св58273 0.0 1019606
12 августа, пт
пт1223:00+23св411465 0.0 1020264
02:00+20всв385316 0.0 1020162
05:00+18в355123 0.0 101990
08:00+21всв37425 0.0 1019152
11:00+29в46246 0.0 1019717
14:00+33всв45195 0.0 10172295
17:00+34св45185 0.0 10162591
20:00+31св58245 0.0 1016618
13 августа, сб
сб1323:00+25св411410 0.0 1016282
02:00+21в36420 0.0 1016118
05:00+20в24400 0.0 101670
08:00+22вюв26380 0.0 1017131
11:00+30в45210 0.0 1017740
14:00+34в34160 0.0 10162520
17:00+34всв33154 0.0 10152884
20:00+32всв47210 0.0 1015535
14 августа, вс
вс1423:00+24всв37410 0.0 1016143
02:00+22юв35415 0.0 101688
05:00+21вюв3441100 0.0 101573
08:00+22вюв2440100 0.0 1015122
11:00+30вюв342566 0.0 1014710
14:00+34вюв2317100 0.0 10122609
17:00+34сз1217100 0.0 10102373
20:00+29ссв242848 0.0 1010174